TIME,DELAY(SENSOR),PRES,OXYGEN,RAWTEMP,T(OPTODE),TCPHASE,FLUOR,BETA(BETA700),BETA(BETA412),BETA(BETA440),CDOM,C(CSC),ED(ED412.20),ED(ED444.00),ED(ED489.60),ED(ED554.30),LU(LU412.10),LU(LU443.90),LU(LU489.70),LU(LU554.70),COMP,TILTX,TILTY,CHECK
1345433241,5809,910.0499877929688000,35.4483795166015600,556.8917846679688000,4.5821838378906250,56.1792488098144500,54,100,101,79,82,15576,0,0,0,0,2147120932,2147778285,2147569472,2147575670,3098,3,13,9563
1345436837,5808,981.6799926757812000,40.0323295593261700,563.5593872070312000,4.3755278587341310,55.5429306030273440,55,99,102,78,83,15571,0,0,0,0,2147118564,2147774217,2147575588,2147570267,178,3,13,55329
1345440437,5811,992.4600219726562000,37.3498802185058600,565.4677124023438000,4.3163189888000490,55.9660911560058600,54,98,102,78,82,15575,0,0,0,0,2147121984,2147776310,2147573394,2147575131,57,3,13,61940
1345444037,5811,1004.0200195312500000,36.5318794250488300,565.2532958984375000,4.3229727745056150,56.0918617248535160,55,100,100,78,83,15576,0,0,0,0,2147124818,2147775908,2147577307,2147568064,218,3,13,41144
1345447637,5812,1005.1599731445312000,36.6449203491210940,565.9940795898438000,4.2999777793884280,56.0867691040039060,55,99,101,77,82,15575,0,0,0,0,2147120429,2147775963,2147576009,2147572187,3444,3,13,48676
1345451237,5808,1003.9600219726562000,37.8894386291503900,566.0372924804688000,4.2986369132995605,55.8935317993164060,55,99,100,79,83,15570,0,0,0,0,2147120822,2147774756,2147576310,2147570294,3356,3,13,49238
1345454837,5809,1009.0999755859375000,37.4382514953613300,566.1984252929688000,4.2936358451843260,55.9670410156250000,55,97,113,77,83,15575,0,0,0,0,2147121728,2147771053,2147572141,2147571154,3390,3,13,42470
1345458437,5811,1015.0300292968750000,36.5355491638183600,565.9758300781250000,4.3005452156066895,56.0982704162597660,55,99,101,78,83,15571,0,0,0,0,2147120448,2147777563,2147573184,2147571273,96,3,13,43080
1345462037,5809,1017.3800048828125000,37.2872810363769500,566.3148193359375000,4.2900238037109375,55.9859504699707000,55,98,101,78,82,15567,0,0,0,0,2147123245,2147774610,2147571501,2147569526,3382,3,13,36063
1345465637,5809,1020.6099853515625000,36.2321891784668000,566.0504150390625000,4.2982311248779300,56.1463890075683600,55,98,100,79,83,15570,0,0,0,0,2147125787,2147778998,2147571931,2147569289,382,3,12,16961
1345469237,5808,1018.7399902343750000,38.2249488830566400,564.9960937500000000,4.3309540748596190,55.8283195495605500,55,98,100,78,83,15570,0,0,0,0,2147122331,2147777600,2147574912,2147573778,118,3,13,19557
1345472837,5807,1012.4299926757812000,36.0785903930664060,566.4647827148438000,4.2853641510009770,56.1783599853515600,56,100,102,77,83,15571,0,0,0,0,2147121371,2147779620,2147576201,2147571657,269,3,13,32258
1345476437,5809,1012.4299926757812000,36.5200004577636700,565.9133911132812000,4.3024849891662600,56.1024208068847660,55,98,101,78,83,15565,0,0,0,0,2147122084,2147770057,2147569307,2147571913,555,3,13,36446
1345480037,5811,1008.0000000000000000,39.1350784301757800,566.6940917968750000,4.2782478332519530,55.7089004516601560,54,99,101,78,82,15570,0,0,0,0,2147122642,2147774262,2147571126,2147570825,3299,3,13,47517
1345483637,5809,1015.1599731445312000,40.0391998291015600,566.5028076171875000,4.2841849327087400,55.5748710632324200,55,99,101,82,83,15566,0,0,0,0,2147119716,2147773924,2147570560,2147570249,340,3,13,64825
1345487237,5809,1017.8699951171875000,39.6721916198730500,566.2728271484375000,4.2913269996643070,55.6243591308593750,55,99,102,79,83,15559,0,0,0,0,2147119954,2147773129,2147574820,2147572918,33,3,12,39016
1345490837,5809,1025.0200195312500000,38.5375404357910160,565.9833984375000000,4.3003120422363280,55.7953300476074200,56,100,101,78,82,15559,0,0,0,0,2147122633,2147774939,2147573979,2147570953,271,3,13,41106
1345494437,5808,1011.5399780273438000,38.0703506469726560,565.9943237304688000,4.2999739646911620,55.8661308288574200,55,98,101,78,82,15560,0,0,0,0,2147121910,2147772681,2147575030,2147572233,2899,3,13,17547
1345498037,5809,1009.0900268554688000,39.7935600280761700,567.2551269531250000,4.2608280181884770,55.6196784973144500,55,98,100,79,83,15561,0,0,0,0,2147120237,2147773293,2147575332,2147571456,58,3,13,36204
1345501637,5810,1014.8800048828125000,38.6893005371093750,567.8063964843750000,4.2437081336975100,55.7919006347656250,55,98,100,77,83,15565,0,0,0,0,2147123209,2147771666,2147570404,2147568740,3319,3,13,65047
1345505237,5808,1017.1599731445312000,38.5350189208984400,567.8679199218750000,4.2417998313903810,55.8161087036132800,56,98,101,77,83,15562,0,0,0,0,2147121106,2147773065,2147574665,2147573028,3420,3,13,42878
1345508837,5809,1020.4099731445312000,38.8042411804199200,567.7719726562500000,4.2447757720947270,55.7700691223144500,56,100,102,78,83,15560,0,0,0,0,2147121417,2147776493,2147571017,2147572251,3276,3,13,13435
1345512437,5809,1021.7899780273438000,40.1369285583496100,566.6721191406250000,4.2789311408996580,55.5587997436523440,55,99,101,79,83,15557,0,0,0,0,2147125641,2147770176,2147571739,2147570742,742,3,13,1163
1345516037,5808,1018.2199707031250000,39.4262809753418000,566.3676147460938000,4.2883849143981930,55.6636810302734400,54,100,101,78,83,15555,0,0,0,0,2147126107,2147774720,2147573824,2147571053,233,3,13,22413
1345519637,5807,1023.3900146484375000,40.0482406616210940,566.6005249023438000,4.2811532020568850,55.5744514465332000,55,99,101,78,83,15561,0,0,0,0,2147119177,2147776018,2147572489,2147571712,398,3,13,63841
1345523237,5809,1017.4500122070312000,39.3214302062988300,566.5883789062500000,4.2815279960632320,55.6785011291503900,55,108,101,78,83,15559,0,0,0,0,2147122358,2147774272,2147576411,2147567908,3285,3,13,52386
1345526837,5809,1023.9600219726562000,39.4069099426269500,567.1057739257812000,4.2654647827148440,55.6716194152832000,54,99,100,78,83,15560,0,0,0,0,2147122678,2147773531,2147573952,2147570020,3329,3,13,12862
1345530437,5809,1018.7399902343750000,39.8261604309082000,566.3745117187500000,4.2881717681884770,55.6040000915527340,54,99,100,78,82,15558,0,0,0,0,2147120091,2147773769,2147574080,2147572580,3416,3,13,39942
1345534037,5810,1021.5300292968750000,38.9202308654785160,566.8574218750000000,4.2731781005859375,55.7397689819335940,55,100,103,77,82,15560,0,0,0,0,2147120969,2147770459,2147575113,2147571126,176,3,13,33022
1345537637,5809,1024.7900390625000000,39.5384712219238300,566.3786010742188000,4.2880420684814450,55.6460990905761700,55,98,112,80,83,15555,0,0,0,0,2147123529,2147774482,2147571657,2147569526,217,3,13,13302
1345541237,5810,1029.9300537109375000,38.9099693298339840,566.4464721679688000,4.2859330177307130,55.7413597106933600,56,100,101,78,82,15557,0,0,0,0,2147127012,2147772397,2147574089,2147569581,103,3,13,568
1345544837,5808,1029.1700439453125000,36.7056503295898440,566.5750122070312000,4.2819461822509770,56.0773696899414060,54,98,101,78,83,15557,0,0,0,0,2147124342,2147769636,2147572571,2147571392,194,3,13,56173
1345548437,5811,1026.5000000000000000,39.0417785644531250,566.2128295898438000,4.2931880950927730,55.7164192199707000,54,99,100,77,83,15559,0,0,0,0,2147121453,2147773275,2147574500,2147569782,69,3,13,32390
1345552037,5810,1019.9699707031250000,39.2094001770019500,566.8010253906250000,4.2749290466308590,55.7020111083984400,55,100,101,78,82,15557,0,0,0,0,2147121270,2147773440,2147573129,2147570102,233,3,13,23075
1345555637,5807,1025.7800292968750000,38.6182899475097660,566.3427124023438000,4.2891578674316410,55.7874488830566400,54,104,101,80,85,15557,0,0,0,0,2147123017,2147769298,2147570861,2147570294,301,3,13,10122
1345559237,5809,1032.5400390625000000,37.1085395812988300,566.0286865234375000,4.2989029884338380,56.0115089416503900,56,97,102,78,82,15559,0,0,0,0,2147121334,2147773540,2147575515,2147569472,2964,3,13,27554
1345562837,5811,1030.4200439453125000,37.5345306396484400,566.1641845703125000,4.2946991920471190,55.9492187500000000,54,99,102,78,82,15554,0,0,0,0,2147123986,2147775908,2147574436,2147572187,67,3,13,40442
1345566437,5810,1022.0999755859375000,39.2041397094726560,566.2064819335938000,4.2933850288391110,55.6974601745605500,56,99,101,77,82,15553,0,0,0,0,2147121115,2147772937,2147574610,2147570898,3479,3,13,33351
1345570037,5810,1027.7700195312500000,39.3725090026855500,566.7883300781250000,4.2753238677978520,55.6741409301757800,54,100,101,78,83,15552,0,0,0,0,2147125595,2147775488,2147572717,2147570989,201,3,13,14221
1345573637,5810,1017.8900146484375000,38.2962608337402340,567.8599243164062000,4.2420477867126465,55.8507614135742200,55,98,101,78,82,15553,0,0,0,0,2147121142,2147772297,2147578340,2147570276,3468,3,13,53504
1345577156,5810,1021.5900268554688000,36.8755912780761700,569.2529296875000000,4.1987757682800290,56.0835494995117200,55,99,101,78,83,15556,0,0,0,0,2147120731,2147777590,2147572342,2147570971,3420,3,13,34065
